Waarnemingen

Advertentie
Mijn weer
Culdrose, Groot Brittannië (3809): temperatuur & dauwpunt: 09.12.2017 23:00:00 - 15.12.2017 23:00:00 (GMT)Culdrose, Groot Brittannië (3809): windsnelheid & windstoten: 09.12.2017 23:00:00 - 15.12.2017 23:00:00 (GMT)Culdrose, Groot Brittannië (3809): windrichting: 09.12.2017 23:00:00 - 15.12.2017 23:00:00 (GMT)Culdrose, Groot Brittannië (3809): luchtdruk: 09.12.2017 23:00:00 - 15.12.2017 23:00:00 (GMT)Culdrose, Groot Brittannië (3809): zicht: 09.12.2017 23:00:00 - 15.12.2017 23:00:00 (GMT)Culdrose, Groot Brittannië (3809): neerslag: 09.12.2017 23:00:00 - 15.12.2017 23:00:00 (GMT)
Datum & Tijd tt [°C] td [°C] ff [km/u] ff [kn] fx [km/u] fx [kn] dd ppp [hPa] vv [km] rr [mm]
15.12.2017 23:00:00 5,1 3,5 21 11 65 35 NNO 1016,7 19 1,4
15.12.2017 22:00:00 4,9 3,3 35 19 54 29 N 1015,9 4,6 1,0
15.12.2017 21:00:00 4,7 3,1 24 13 59 32 N 1014,9 21 0,2
15.12.2017 20:00:00 6,0 4,8 22 12 - - NNW 1014,4 15 0,4
15.12.2017 19:00:00 6,9 4,6 37 20 50 27 N 1013,0 18 0,0
15.12.2017 18:00:00 6,2 4,8 24 13 67 36 N 1011,9 17 0,6
15.12.2017 17:00:00 6,9 5,3 35 19 65 35 NNW 1010,8 8 0,4
15.12.2017 16:00:00 6,7 5,1 42 23 59 32 N 1009,6 8 0,4
15.12.2017 15:00:00 6,5 5,1 35 19 65 35 N 1008,5 3,5 1,0
15.12.2017 14:00:00 7,9 5,0 29 16 65 35 NNW 1007,6 10 0,0
15.12.2017 13:00:00 7,9 4,9 34 18 63 34 NNW 1006,7 10 0,2
15.12.2017 12:00:00 8,3 4,6 28 15 67 36 NNW 1006,2 10 0,0
15.12.2017 11:00:00 8,4 2,9 29 16 63 34 NNW 1005,3 9 0,0
15.12.2017 10:00:00 8,0 3,4 31 17 65 35 NNW 1004,7 10 0,2
15.12.2017 09:00:00 7,7 3,4 34 18 63 34 NNW 1003,2 10 0,2
15.12.2017 08:00:00 7,4 3,8 39 21 72 39 NNW 1002,1 10 0,2
15.12.2017 07:00:00 7,2 4,4 39 21 74 40 NW 1001,3 10 0,2
15.12.2017 06:00:00 8,2 4,0 39 21 68 37 NW 1000,2 10 0,0
15.12.2017 05:00:00 7,7 4,2 39 21 76 41 NW 999,5 10 0,0
15.12.2017 04:00:00 7,8 3,9 28 15 52 28 NW 998,9 10 0,0
15.12.2017 03:00:00 7,4 4,1 24 13 - - WNW 998,6 10 0,0
15.12.2017 02:00:00 6,7 3,8 26 14 48 26 WNW 998,0 10 0,4
15.12.2017 01:00:00 7,0 3,2 26 14 61 33 WNW 998,3 10 0,2
15.12.2017 00:00:00 7,0 2,9 26 14 50 27 WNW 998,2 10 0,0
14.12.2017 23:00:00 7,0 3,1 29 16 54 29 WNW 997,7 10 0,0
14.12.2017 22:00:00 7,3 2,7 34 18 61 33 WNW 997,2 10 0,0
14.12.2017 21:00:00 7,4 2,9 34 18 72 39 NW 996,4 14 0,0
14.12.2017 20:00:00 7,4 2,3 41 22 76 41 NW 995,7 10 0,0
14.12.2017 19:00:00 7,5 3,1 42 23 80 43 NW 994,4 12 0,2
14.12.2017 18:00:00 6,9 3,7 57 31 85 46 WNW 993,0 6 0,0
14.12.2017 17:00:00 7,2 4,3 48 26 70 38 W 992,4 10 0,0
14.12.2017 16:00:00 7,4 3,7 46 25 67 36 W 993,5 6 0,2
14.12.2017 15:00:00 4,7 2,7 37 20 76 41 W 994,3 6 0,2
14.12.2017 14:00:00 5,8 1,8 39 21 72 39 W 994,7 10 2,0
14.12.2017 13:00:00 4,2 2,5 50 27 80 43 W 995,6 6 0,8
14.12.2017 12:00:00 6,6 2,7 39 21 61 33 W 996,2 10 0,0
14.12.2017 11:00:00 4,8 2,5 26 14 76 41 W 997,5 18 2,0
14.12.2017 10:00:00 5,1 3,6 18 10 72 39 W 998,1 10 0,4
14.12.2017 09:00:00 6,9 2,8 34 18 57 31 W 998,1 17 0,0
14.12.2017 08:00:00 5,6 3,6 34 18 78 42 W 998,7 10 1,4
14.12.2017 07:00:00 5,7 3,0 35 19 68 37 W 999,3 17 0,4
14.12.2017 06:00:00 5,8 2,9 29 16 65 35 W 999,8 10 0,2
14.12.2017 05:00:00 6,4 2,5 31 17 65 35 W 1000,2 10 0,0
14.12.2017 04:00:00 5,4 3,3 41 22 76 41 WNW 1001,0 10 0,6
14.12.2017 03:00:00 5,4 3,5 28 15 70 38 W 1001,5 10 0,4
14.12.2017 02:00:00 4,8 3,4 26 14 65 35 WNW 1002,0 10 1,4
14.12.2017 01:00:00 5,3 2,5 31 17 91 49 WNW 1002,4 10 0,4
14.12.2017 00:00:00 5,6 2,6 26 14 85 46 W 1002,4 10 0,6
13.12.2017 23:00:00 6,9 1,0 34 18 63 34 WNW 1002,2 10 0,0
13.12.2017 22:00:00 6,5 1,3 31 17 74 40 WNW 1001,6 10 0,0
13.12.2017 21:00:00 6,6 1,1 39 21 81 44 WNW 1000,9 18 0,0
13.12.2017 20:00:00 7,1 0,0 50 27 89 48 WNW 999,8 10 0,0
13.12.2017 19:00:00 6,6 4,1 41 22 83 45 WNW 999,2 10 0,6
13.12.2017 18:00:00 6,9 5,4 42 23 85 46 W 998,8 12 1,4
13.12.2017 17:00:00 9,1 3,8 41 22 68 37 W 998,9 9 0,0
13.12.2017 16:00:00 8,1 4,8 28 15 52 28 W 999,2 10 0,0
13.12.2017 15:00:00 7,8 5,6 31 17 70 38 W 999,6 8 0,4
13.12.2017 14:00:00 8,1 6,4 29 16 70 38 WNW 999,4 7 0,2
13.12.2017 13:00:00 9,1 7,7 29 16 67 36 W 999,5 4,0 0,8
13.12.2017 12:00:00 10,3 8,9 31 17 59 32 W 1000,1 15 0,2
13.12.2017 11:00:00 10,0 9,5 24 13 61 33 WZW 1001,0 10 0,0
13.12.2017 10:00:00 9,3 9,0 29 16 57 31 WZW 1001,6 3,5 0,8
13.12.2017 09:00:00 8,9 8,2 22 12 61 33 WZW 1002,8 8 0,0
13.12.2017 08:00:00 10,0 8,3 26 14 52 28 WZW 1003,4 8 0,0
13.12.2017 07:00:00 9,9 7,8 26 14 54 29 WZW 1004,2 10 0,0
13.12.2017 06:00:00 9,9 7,7 31 17 57 31 W 1005,1 10 0,4
13.12.2017 05:00:00 9,0 7,4 26 14 52 28 W 1005,5 7 0,4
13.12.2017 04:00:00 9,1 7,2 16 9 - - W 1006,1 10 0,0
13.12.2017 03:00:00 9,3 6,0 22 12 - - W 1006,5 10 0,0
13.12.2017 02:00:00 8,5 6,3 16 9 - - W 1006,4 10 0,0
13.12.2017 01:00:00 8,5 6,4 22 12 46 25 W 1007,0 12 0,0
13.12.2017 00:00:00 8,7 6,4 21 11 - - WNW 1006,5 10 0,0
12.12.2017 23:00:00 8,4 7,2 16 9 - - WNW 1006,2 10 0,0
12.12.2017 22:00:00 10,0 9,5 21 11 55 30 WZW 1004,9 8 0,0
12.12.2017 21:00:00 9,9 9,7 34 18 67 36 ZW 1005,8 2,5 0,2
12.12.2017 20:00:00 9,2 8,9 37 20 63 34 ZW 1006,6 2,8 2,0
12.12.2017 19:00:00 8,6 8,2 34 18 57 31 ZW 1007,3 4,0 1,4
12.12.2017 18:00:00 8,0 7,4 41 22 57 31 ZZW 1008,2 6 0,2
12.12.2017 17:00:00 8,8 5,1 39 21 52 28 ZW 1008,3 10 0,0
12.12.2017 16:00:00 8,3 5,4 35 19 48 26 ZW 1007,9 20 0,0
12.12.2017 15:00:00 8,5 5,2 34 18 46 25 WZW 1009,2 10 0,0
12.12.2017 14:00:00 8,6 4,0 24 13 - - ZW 1009,5 20 0,0
12.12.2017 13:00:00 8,5 3,9 26 14 - - WZW 1010,0 10 0,0
12.12.2017 12:00:00 8,0 2,9 15 8 - - WZW 1010,4 10 0,0
12.12.2017 11:00:00 7,0 3,8 13 7 - - W 1010,6 10 0,0
12.12.2017 10:00:00 5,0 2,6 9 5 - - W 1010,7 10 0,0
12.12.2017 09:00:00 4,7 1,8 9 5 - - W 1010,0 10 0,0
12.12.2017 08:00:00 4,3 2,2 9 5 - - W 1009,7 10 0,0
12.12.2017 07:00:00 4,8 1,8 13 7 - - NW 1008,8 10 0,0
12.12.2017 06:00:00 4,2 2,2 11 6 - - WNW 1008,6 10 0,2
12.12.2017 05:00:00 4,5 1,6 11 6 - - NW 1007,6 10 0,0
12.12.2017 04:00:00 4,5 1,6 11 6 - - NW 1007,2 10 0,0
12.12.2017 03:00:00 4,1 1,6 13 7 - - NW 1006,8 20 0,0
12.12.2017 02:00:00 3,8 1,4 13 7 - - NW 1005,9 10 0,0
12.12.2017 01:00:00 4,1 1,6 8 4 - - N 1004,7 10 0,0
12.12.2017 00:00:00 4,8 1,7 11 6 - - N 1004,0 10 0,0
11.12.2017 23:00:00 5,1 1,9 16 9 - - N 1002,7 10 0,0
11.12.2017 22:00:00 6,1 2,7 22 12 - - NNW 1001,9 10 0,0
11.12.2017 21:00:00 6,2 2,3 18 10 50 27 NNW 1001,1 18 0,0
11.12.2017 20:00:00 5,2 2,6 8 4 - - WNW 999,7 18 0,0
11.12.2017 19:00:00 5,7 1,2 15 8 - - N 998,2 10 0,0
11.12.2017 18:00:00 5,4 0,9 15 8 - - NNW 996,7 10 0,2
11.12.2017 17:00:00 5,3 2,1 18 10 - - NNW 995,8 10 0,0
11.12.2017 16:00:00 4,6 2,2 18 10 54 29 N 994,8 10 0,2
11.12.2017 15:00:00 6,1 0,2 31 17 52 28 N 993,6 10 0,0
11.12.2017 14:00:00 5,6 -1,5 42 23 65 35 N 992,5 10 0,0
11.12.2017 13:00:00 5,6 -0,6 39 21 67 36 N 991,5 10 0,0
11.12.2017 12:00:00 5,2 0,0 48 26 72 39 N 990,2 10 0,0
11.12.2017 11:00:00 4,8 0,5 39 21 68 37 N 989,1 10 0,0
11.12.2017 10:00:00 4,2 1,2 41 22 70 38 N 987,0 10 0,0
11.12.2017 09:00:00 3,7 1,6 39 21 70 38 N 985,4 10 0,2
11.12.2017 08:00:00 3,3 1,8 39 21 68 37 NNO 983,4 10 0,6
11.12.2017 07:00:00 3,2 1,9 41 22 72 39 NNO 981,3 6 0,2
11.12.2017 06:00:00 3,4 2,1 41 22 67 36 NNO 979,6 10 0,8
11.12.2017 05:00:00 3,5 2,3 39 21 78 42 NNO 977,6 7 0,2
11.12.2017 04:00:00 3,7 2,4 42 23 72 39 NNO 975,9 10 0,0
11.12.2017 03:00:00 4,6 3,6 39 21 65 35 N 975,8 5 0,0
11.12.2017 02:00:00 5,5 4,4 26 14 - - NNO 975,8 8 0,0
11.12.2017 01:00:00 3,8 2,4 15 8 - - NO 976,1 10 0,0
11.12.2017 00:00:00 4,4 3,0 9 5 - - ONO 976,1 19 0,0
10.12.2017 23:00:00 3,9 2,9 9 5 - - ONO 976,3 14 0,0
10.12.2017 22:00:00 5,0 3,3 5 3 - - NW 976,6 10 0,0
10.12.2017 21:00:00 7,3 4,3 13 7 - - W 976,8 10 0,0
10.12.2017 20:00:00 7,0 3,5 15 8 - - W 977,4 22 0,0
10.12.2017 19:00:00 7,8 3,8 24 13 - - W 978,0 20 0,0
10.12.2017 18:00:00 7,5 3,1 28 15 - - W 978,5 24 0,2
10.12.2017 17:00:00 7,4 3,6 26 14 59 32 W 979,0 22 0,0
10.12.2017 16:00:00 8,4 3,7 37 20 61 33 W 979,6 19 0,0
10.12.2017 15:00:00 9,0 3,5 42 23 68 37 W 980,2 21 0,0
10.12.2017 14:00:00 9,0 4,3 44 24 70 38 W 981,0 18 0,0
10.12.2017 13:00:00 8,7 3,6 52 28 68 37 W 981,7 21 0,0
10.12.2017 12:00:00 9,4 4,0 48 26 74 40 W 982,2 18 0,0
10.12.2017 11:00:00 9,1 4,4 46 25 83 45 W 983,0 14 0,4
10.12.2017 10:00:00 9,4 3,1 57 31 83 45 W 983,4 16 0,2
10.12.2017 09:00:00 9,6 3,3 63 34 94 51 W 984,0 10 0,0
10.12.2017 08:00:00 9,2 3,7 68 37 109 59 W 983,8 13 0,0
10.12.2017 07:00:00 9,5 3,0 63 34 98 53 W 983,9 12 0,0
10.12.2017 06:00:00 9,4 3,8 61 33 100 54 W 984,2 11 0,6
10.12.2017 05:00:00 9,4 7,9 63 34 93 50 W 984,4 2,9 0,4
10.12.2017 04:00:00 10,5 8,7 39 21 63 34 W 984,9 16 1,2
10.12.2017 03:00:00 10,9 9,5 46 25 87 47 W 987,6 7 8,2
10.12.2017 02:00:00 9,3 9,0 21 11 46 25 ZO 988,8 1,7 8,2
10.12.2017 01:00:00 8,2 7,6 31 17 46 25 ZO 992,6 4,2 3,4
10.12.2017 00:00:00 7,7 7,1 31 17 46 25 ZO 996,3 4,7 1,0
09.12.2017 23:00:00 7,5 6,5 34 18 - - ZO 998,8 7 0,8

tt = temperatuur
td = dauwpunt
ff = windsnelheid
fx = windstoten
dd = windrichting
ppp = luchtdruk
vv = zicht
rr = neerslag

Weerstations in de omgeving